Weather History for Tallahassee, FL

Change the Weather History Date:

Monday, May 21, 2012

  Actual Average Record
Temperature  
Mean Temperature 74 °F 76 °F  
Max Temperature 92 °F 88 °F 98 °F (1938)
Min Temperature 55 °F 63 °F 48 °F (2002)
Degree Days  
Heating Degree Days 0    
Month to date heating degree days 0  
Since 1 July heating degree days 1055  
Cooling Degree Days 9    
Month to date cooling degree days 236  
Year to date cooling degree days 606  
Growing Degree Days 23 (Base 50)    
Moisture  
Dew Point 52 °F    
Average Humidity 54    
Maximum Humidity 83    
Minimum Humidity 24    
Precipitation  
Precipitation 0.00 in 0.12 in 1.75 in (1942)
Month to date precipitation 4.02 2.01  
Year to date precipitation 16.64 20.20  
Sea Level Pressure  
Sea Level Pressure 29.99 in    
Wind  
Wind Speed 4 mph (WNW)    
Max Wind Speed 9 mph    
Max Gust Speed 23 mph    
Visibility 10 miles    
Events      
T = Trace of Precipitation, MM = Missing Value Source: NWS Daily Summary

Daily Weather History Graph

Daily Weather History Graph

Search for Another Location

Airport:

Trip Planner

Search our weather history database for the weather conditions in past years. The results will help you decide how hot, cold, wet, or windy it might be!

Date:

Astronomy

May. 21, 2012 Rise Set
Actual Time 6:39 AM EDT 8:28 PM EDT
Civil Twilight 6:12 AM EDT 8:55 PM EDT
Nautical Twilight 5:40 AM EDT 9:27 PM EDT
Astronomical Twilight 5:06 AM EDT 10:01 PM EDT
Moon 7:03 AM EDT (5/21) 9:16 PM EDT (5/21)
Length of Visible Light 14h 42m
Length of Day
13h 49m
New Moon, 0% of the Moon is Illuminated
May 21
New Moon
May 28
First Quarter
Jun 4
Full
Jun 11
Last Quarter
Jun 19
New

Hourly Weather History & Observations

Time (EDT) Temp. Heat Index Dew Point Humidity Pressure Visibility Wind Dir Wind Speed Gust Speed Precip Events Conditions
12:53 AM 63.0 °F - 53.1 °F 70% 30.02 in 10.0 mi ESE 3.5 mph - N/A   Clear
1:53 AM 59.0 °F - 50.0 °F 72% 30.01 in 10.0 mi Calm Calm - N/A   Clear
2:53 AM 57.9 °F - 50.0 °F 75% 30.01 in 10.0 mi Calm Calm - N/A   Clear
3:53 AM 55.9 °F - 50.0 °F 80% 30.01 in 10.0 mi West 3.5 mph - N/A   Clear
4:53 AM 57.0 °F - 50.0 °F 77% 30.00 in 10.0 mi Calm Calm - N/A   Clear
5:53 AM 55.9 °F - 50.0 °F 80% 30.01 in 10.0 mi Calm Calm - N/A   Clear
6:53 AM 55.0 °F - 50.0 °F 83% 30.01 in 10.0 mi Calm Calm - N/A   Clear
7:53 AM 61.0 °F - 52.0 °F 72% 30.02 in 10.0 mi Calm Calm - N/A   Clear
8:53 AM 73.0 °F - 51.1 °F 46% 30.03 in 8.0 mi Calm Calm - N/A   Clear
9:53 AM 81.0 °F - 48.9 °F 33% 30.03 in 10.0 mi Variable 3.5 mph - N/A   Clear
10:53 AM 84.9 °F - 46.0 °F 26% 30.03 in 10.0 mi Variable 3.5 mph - N/A   Clear
11:53 AM 87.1 °F - 46.0 °F 24% 30.02 in 10.0 mi NNW 5.8 mph - N/A   Clear
12:53 PM 88.0 °F - 51.1 °F 28% 30.01 in 10.0 mi NNW 9.2 mph - N/A   Clear
1:53 PM 88.0 °F - 52.0 °F 29% 30.00 in 10.0 mi WNW 4.6 mph - N/A   Partly Cloudy
2:53 PM 91.9 °F 89.5 °F 54.0 °F 27% 29.96 in 10.0 mi NNW 9.2 mph 23.0 mph N/A   Partly Cloudy
3:53 PM 91.0 °F 88.5 °F 53.1 °F 27% 29.94 in 10.0 mi NNW 6.9 mph - N/A   Partly Cloudy
4:53 PM 91.0 °F 88.7 °F 54.0 °F 28% 29.92 in 10.0 mi NNW 5.8 mph - N/A   Partly Cloudy
5:53 PM 90.0 °F 87.7 °F 54.0 °F 29% 29.92 in 10.0 mi NNW 8.1 mph - N/A   Scattered Clouds
6:53 PM 86.0 °F 84.7 °F 55.9 °F 36% 29.92 in 10.0 mi SW 8.1 mph - N/A   Scattered Clouds
7:53 PM 82.9 °F 82.4 °F 57.0 °F 41% 29.93 in 10.0 mi South 5.8 mph - N/A   Partly Cloudy
8:53 PM 79.0 °F - 61.0 °F 54% 29.93 in 10.0 mi SSW 5.8 mph - N/A   Partly Cloudy
9:53 PM 75.9 °F - 64.0 °F 67% 29.95 in 10.0 mi SW 4.6 mph - N/A   Partly Cloudy